When you browse on this site, cookies collect data to enhance your experience and personalize the content and advertising you see.
Visit our Privacy Policy to learn more. By continuing to use the site, you agree to this use of cookies and data.
  • Em Portugal
  • Lista de países
  • Para 7 dias
  • Temperatura da água
  • Mapas de satélite
  • Mapa do tempo
  • Widgets de tempo
  • user-avatar
    Iniciar Sessão

    Previsão horária em Korostino

    Hoje, 19 Abril, Sexta-feira

    Tempo Temperatura Precipitação Vento Pressão Humidade
    00:00 +3°C° 0 mm 2 m/s 752 mmHg 76%
    01:00 +3°C° 0 mm 2 m/s 752 mmHg 80%
    02:00 +3°C° 0 mm 1 m/s 753 mmHg 85%
    03:00 +3°C° 0 mm 1 m/s 753 mmHg 87%
    04:00 +2°C° 0 mm 1 m/s 753 mmHg 89%
    05:00 +2°C° 0 mm 1 m/s 753 mmHg 91%
    06:00 +4°C° 0 mm 1 m/s 753 mmHg 81%
    07:00 +6°C° 0 mm 1 m/s 753 mmHg 71%
    08:00 +8°C° 0 mm 1 m/s 753 mmHg 61%
    09:00 +10°C° 0 mm 1 m/s 753 mmHg 54%
    10:00 +11°C° 0 mm 1 m/s 753 mmHg 47%
    11:00 +13°C° 0 mm 1 m/s 753 mmHg 40%
    12:00 +13°C° 0 mm 1 m/s 753 mmHg 38%
    13:00 +14°C° 0 mm 1 m/s 752 mmHg 36%
    14:00 +14°C° 0 mm 1 m/s 752 mmHg 33%
    15:00 +14°C° 0 mm 1 m/s 751 mmHg 34%
    16:00 +14°C° 0 mm 1 m/s 751 mmHg 35%
    17:00 +14°C° 0 mm 1 m/s 750 mmHg 36%
    18:00 +12°C° 0 mm 1 m/s 750 mmHg 41%
    19:00 +11°C° 0 mm 1 m/s 750 mmHg 46%
    20:00 +9°C° 0 mm 1 m/s 750 mmHg 51%
    21:00 +9°C° 0 mm 1 m/s 750 mmHg 52%
    22:00 +9°C° 0 mm 1 m/s 750 mmHg 53%
    23:00 +7°C° 0 mm 2 m/s 749 mmHg 53%

    Amanhã, 20 Abril, Sábado

    Tempo Temperatura Precipitação Vento Pressão Humidade
    00:00 +8°C° 0.1 mm 1 m/s 749 mmHg 60%
    01:00 +8°C° 0.1 mm 1 m/s 749 mmHg 66%
    02:00 +7°C° 0.1 mm 1 m/s 749 mmHg 73%
    03:00 +6°C° 0.2 mm 2 m/s 748 mmHg 78%
    04:00 +6°C° 0.2 mm 2 m/s 748 mmHg 82%
    05:00 +5°C° 0.2 mm 2 m/s 748 mmHg 87%
    06:00 +6°C° 0.2 mm 2 m/s 748 mmHg 86%
    07:00 +6°C° 0.2 mm 2 m/s 748 mmHg 85%
    08:00 +7°C° 0.2 mm 2 m/s 748 mmHg 84%
    09:00 +7°C° 0.2 mm 2 m/s 748 mmHg 79%
    10:00 +8°C° 0.2 mm 2 m/s 748 mmHg 73%
    11:00 +9°C° 0.2 mm 2 m/s 747 mmHg 68%
    12:00 +10°C° 0.1 mm 2 m/s 747 mmHg 61%
    13:00 +10°C° 0.1 mm 2 m/s 747 mmHg 54%
    14:00 +12°C° 0.1 mm 2 m/s 747 mmHg 47%
    15:00 +12°C° 0.1 mm 2 m/s 747 mmHg 47%
    16:00 +11°C° 0.1 mm 3 m/s 747 mmHg 47%
    17:00 +10°C° 0.1 mm 3 m/s 747 mmHg 47%
    18:00 +9°C° 0 mm 2 m/s 747 mmHg 55%
    19:00 +7°C° 0 mm 2 m/s 747 mmHg 62%
    20:00 +5°C° 0 mm 2 m/s 747 mmHg 70%
    21:00 +5°C° 0 mm 2 m/s 747 mmHg 72%
    22:00 +5°C° 0 mm 2 m/s 747 mmHg 75%
    23:00 +4°C° 0 mm 2 m/s 748 mmHg 77%

    Depois de amanhã, 21 Abril, Domingo

    Tempo Temperatura Precipitação Vento Pressão Humidade
    00:00 +4°C° 0 mm 2 m/s 748 mmHg 80%
    01:00 +3°C° 0 mm 2 m/s 748 mmHg 83%
    02:00 +3°C° 0 mm 2 m/s 748 mmHg 86%
    03:00 +3°C° 0 mm 2 m/s 748 mmHg 88%
    04:00 +3°C° 0 mm 2 m/s 748 mmHg 90%
    05:00 +2°C° 0 mm 2 m/s 748 mmHg 92%
    06:00 +4°C° 0 mm 2 m/s 749 mmHg 86%
    07:00 +6°C° 0 mm 2 m/s 749 mmHg 79%
    08:00 +8°C° 0 mm 3 m/s 749 mmHg 73%
    09:00 +9°C° 0 mm 3 m/s 750 mmHg 67%
    10:00 +12°C° 0 mm 2 m/s 750 mmHg 62%
    11:00 +13°C° 0 mm 2 m/s 750 mmHg 56%
    12:00 +14°C° 0.1 mm 2 m/s 750 mmHg 54%
    13:00 +15°C° 0.1 mm 2 m/s 750 mmHg 52%
    14:00 +15°C° 0.1 mm 2 m/s 750 mmHg 49%
    15:00 +15°C° 0.1 mm 2 m/s 750 mmHg 50%
    16:00 +15°C° 0.1 mm 1 m/s 750 mmHg 52%
    17:00 +15°C° 0.1 mm 1 m/s 750 mmHg 53%
    18:00 +13°C° 0.1 mm 1 m/s 750 mmHg 59%
    19:00 +12°C° 0.1 mm 1 m/s 750 mmHg 65%
    20:00 +10°C° 0.1 mm 1 m/s 750 mmHg 71%
    21:00 +10°C° 0 mm 1 m/s 750 mmHg 74%
    22:00 +9°C° 0 mm 1 m/s 751 mmHg 78%
    23:00 +8°C° 0 mm 1 m/s 751 mmHg 81%

    22 Abril, Segunda-feira

    Tempo Temperatura Precipitação Vento Pressão Humidade
    00:00 +8°C° 0 mm 1 m/s 751 mmHg 82%
    01:00 +7°C° 0 mm 1 m/s 751 mmHg 83%
    02:00 +7°C° 0 mm 1 m/s 751 mmHg 84%
    03:00 +6°C° 0 mm 1 m/s 751 mmHg 84%
    04:00 +6°C° 0 mm 1 m/s 752 mmHg 83%
    05:00 +6°C° 0 mm 1 m/s 752 mmHg 82%
    06:00 +8°C° 0 mm 1 m/s 752 mmHg 75%
    07:00 +9°C° 0 mm 1 m/s 752 mmHg 67%
    08:00 +10°C° 0 mm 2 m/s 752 mmHg 60%
    09:00 +13°C° 0 mm 2 m/s 752 mmHg 54%
    10:00 +14°C° 0 mm 2 m/s 752 mmHg 48%
    11:00 +16°C° 0 mm 2 m/s 752 mmHg 43%
    12:00 +16°C° 0 mm 2 m/s 752 mmHg 42%
    13:00 +16°C° 0 mm 2 m/s 752 mmHg 41%
    14:00 +17°C° 0 mm 2 m/s 752 mmHg 40%
    15:00 +16°C° 0 mm 2 m/s 751 mmHg 42%
    16:00 +16°C° 0 mm 1 m/s 751 mmHg 44%
    17:00 +15°C° 0 mm 1 m/s 751 mmHg 46%
    18:00 +14°C° 0 mm 1 m/s 751 mmHg 50%
    19:00 +12°C° 0 mm 1 m/s 751 mmHg 54%
    20:00 +11°C° 0 mm 1 m/s 751 mmHg 58%
    21:00 +10°C° 0 mm 1 m/s 751 mmHg 60%
    22:00 +9°C° 0 mm 1 m/s 752 mmHg 62%
    23:00 +9°C° 0 mm 1 m/s 752 mmHg 64%

    23 Abril, Terça-feira

    Tempo Temperatura Precipitação Vento Pressão Humidade
    00:00 +8°C° 0 mm 1 m/s 752 mmHg 65%
    01:00 +8°C° 0 mm 1 m/s 752 mmHg 67%
    02:00 +7°C° 0 mm 1 m/s 752 mmHg 68%
    03:00 +7°C° 0 mm 1 m/s 752 mmHg 69%
    04:00 +7°C° 0 mm 1 m/s 752 mmHg 70%
    05:00 +6°C° 0 mm 1 m/s 753 mmHg 72%
    06:00 +9°C° 0 mm 1 m/s 753 mmHg 65%
    07:00 +11°C° 0 mm 1 m/s 753 mmHg 58%
    08:00 +13°C° 0 mm 1 m/s 753 mmHg 52%
    09:00 +14°C° 0 mm 1 m/s 753 mmHg 46%
    10:00 +16°C° 0 mm 2 m/s 753 mmHg 41%
    11:00 +17°C° 0 mm 2 m/s 753 mmHg 36%
    12:00 +17°C° 0 mm 2 m/s 753 mmHg 35%
    13:00 +18°C° 0 mm 2 m/s 753 mmHg 35%
    14:00 +18°C° 0 mm 2 m/s 752 mmHg 34%
    15:00 +18°C° 0 mm 2 m/s 752 mmHg 35%
    16:00 +17°C° 0 mm 2 m/s 752 mmHg 36%
    17:00 +17°C° 0 mm 2 m/s 751 mmHg 37%
    18:00 +15°C° 0 mm 1 m/s 752 mmHg 43%
    19:00 +13°C° 0 mm 1 m/s 752 mmHg 50%
    20:00 +11°C° 0 mm 1 m/s 752 mmHg 56%
    21:00 +11°C° 0 mm 1 m/s 752 mmHg 59%
    22:00 +10°C° 0 mm 1 m/s 752 mmHg 61%
    23:00 +10°C° 0 mm 1 m/s 752 mmHg 63%

    24 Abril, Quarta-feira

    Tempo Temperatura Precipitação Vento Pressão Humidade
    00:00 +9°C° 0 mm 1 m/s 753 mmHg 66%
    01:00 +9°C° 0 mm 1 m/s 753 mmHg 69%
    02:00 +8°C° 0 mm 1 m/s 753 mmHg 72%
    03:00 +8°C° 0 mm 1 m/s 753 mmHg 73%
    04:00 +8°C° 0 mm 1 m/s 753 mmHg 74%
    05:00 +6°C° 0 mm 0 m/s 753 mmHg 75%
    06:00 +9°C° 0 mm 0 m/s 754 mmHg 67%
    07:00 +11°C° 0 mm 0 m/s 754 mmHg 59%
    08:00 +13°C° 0 mm 0 m/s 754 mmHg 51%
    09:00 +16°C° 0 mm 1 m/s 754 mmHg 47%
    10:00 +18°C° 0 mm 1 m/s 754 mmHg 43%
    11:00 +19°C° 0 mm 1 m/s 754 mmHg 39%
    12:00 +19°C° 0 mm 1 m/s 753 mmHg 40%
    13:00 +18°C° 0 mm 1 m/s 753 mmHg 41%
    14:00 +18°C° 0 mm 1 m/s 753 mmHg 42%
    15:00 +17°C° 0 mm 2 m/s 752 mmHg 43%
    16:00 +17°C° 0 mm 2 m/s 752 mmHg 43%
    17:00 +17°C° 0 mm 2 m/s 752 mmHg 43%
    18:00 +15°C° 0 mm 2 m/s 752 mmHg 50%
    19:00 +13°C° 0 mm 1 m/s 752 mmHg 57%
    20:00 +12°C° 0 mm 1 m/s 752 mmHg 64%
    21:00 +11°C° 0 mm 1 m/s 752 mmHg 65%
    22:00 +10°C° 0 mm 1 m/s 752 mmHg 67%
    23:00 +10°C° 0 mm 1 m/s 752 mmHg 69%
    Mostrar mais